Regional Weather Roundup
Issued by NWS State College, PA

Home | Current Version | Previous Version | Graphics & Text | Print | Product List | Glossary On
Versions: 1 2 3 4 5 6 7 8 9 10 11 12 13 14 15 16 17 18 19 20 21 22 23 24 25 26 27 28 29 30 31 32 33 34 35 36 37 38 39 40 41 42 43 44 45 46 47 48 49 50
000
ASUS41 KCTP 051110
RWRCTP

REGIONAL WEATHER ROUNDUP
NATIONAL WEATHER SERVICE STATE COLLEGE PA
700 AM EDT THU MAY 05 2016

Note: "fair" indicates few or no clouds below 12,000 feet with no
significant weather and/or obstructions to visibility.

* = STATION THAT DOES NOT REPORT PRECIPITATION /E.G. RAIN...SNOW...ETC/
    THUNDER OR FOG.

PAZ002>004-007>009-013>016-020>023-029>032-051200-
WESTERN PENNSYLVANIA

CITY           SKY/WX    TMP DP  RH WIND       PRES   REMARKS
ERIE           CLOUDY    48  45  89 N6        29.72R
MEADVILLE      CLOUDY    46  45  96 N5        29.70R
FRANKLIN*      CLOUDY    46  45  93 N3        29.71R VSB 3/4
NEW CASTLE     CLOUDY    48  46  93 CALM      29.70R
BEAVER COUNTY  CLOUDY    48  45  87 N5        29.69
BUTLER*        CLOUDY    48  46  93 N3        29.70S
PITTSBURGH INT CLOUDY    50  46  86 N7        29.67R
PITTSBURGH     CLOUDY    48  46  93 CALM      29.67R FOG
INDIANA*       MOCLDY    50  50 100 CALM      29.71R FOG
LATROBE        LGT RAIN  48  48 100 CALM      29.68R FOG
WASHINGTON CO* CLOUDY    46  45  93 CALM      29.68R
$$

PAZ004>006-010>012-017>019-024>028-033>037-041-042-045-046-049>053-051200-
CENTRAL PENNSYLVANIA

CITY           SKY/WX    TMP DP  RH WIND       PRES   REMARKS
BRADFORD       CLOUDY    47  44  90 NE3       29.70R
DUBOIS         CLOUDY   N/A N/A N/A E5        29.68R HAZE
CLEARFIELD     CLOUDY    49  46  90 NE7       29.70R
JOHNSTOWN      FOG       47  43  86 NE3       29.65S VSB 1/4
ALTOONA        CLOUDY    48  45  89 NE3       29.68R FOG
STATE COLLEGE  CLOUDY    48  46  93 NE6       29.69S FOG
WILLIAMSPORT   CLOUDY    50  45  83 NE3       29.70F
SELINSGROVE    CLOUDY    50  47  89 N5        29.70F
FT INDIANTOWN  CLOUDY    48  48 100 NE3       29.68S
CAPITAL CITY   CLOUDY    50  46  86 E7        29.68S FOG
HARRISBURG     CLOUDY    50  46  86 NE3       29.67F FOG
YORK           CLOUDY    49  47  93 NE5       29.66S FOG
$$

PAZ038>040-043-044-047-048-054-055-060>062-067>071-051200-
EASTERN PENNSYLVANIA

CITY           SKY/WX    TMP DP  RH WIND       PRES   REMARKS
SCRANTON       CLOUDY    47  43  86 NE10      29.70F
MOUNT POCONO   CLOUDY    40  39  97 N7        29.67F
ALLENTOWN      CLOUDY    48  42  80 NE7       29.69F
QUAKERTOWN*    CLOUDY    46  45  93 NE7       29.69R
READING        CLOUDY    48  44  86 E6        29.68S
LANCASTER      CLOUDY    48  46  93 NE9       29.67F FOG
COATESVILLE    CLOUDY    46  46 100 NE3       29.69R
POTTSTOWN      CLOUDY    47  45  93 N6        29.70R
BLUE BELL      CLOUDY    45  43  93 CALM      29.68R
DOYLESTOWN     CLOUDY    46  42  86 NE10      29.68R
WILLOW GROVE   NOT AVBL
NORTH PHILA    CLOUDY    49  45  86 NE10      29.70R
PHILADELPHIA   CLOUDY    50  43  77 NE12      29.69R
$$



USA.gov is the U.S. government's official web portal to all federal, state and local government web resources and services.